Regional Weather Roundup
Issued by NWS

Home | Current Version | Previous Version | Graphics & Text | Print | Product List | Glossary On
Versions: 1 2 3 4 5 6 7 8 9 10 11 12 13 14 15 16 17 18 19 20 21 22 23 24 25 26 27 28 29 30 31 32 33 34 35 36 37 38 39 40 41 42 43 44 45 46 47 48 49 50
057
ASUS43 KLMK 310410
RWRKY
KENTUCKY REGIONAL WEATHER ROUNDUP
NATIONAL WEATHER SERVICE LOUISVILLE KY
1200 AM EDT WED AUG 31 2016

NOTE "FAIR" INDICATES FEW OR NO CLOUDS BELOW 12,000 FEET
WITH NO SIGNIFICANT WEATHER AND/OR OBSTRUCTIONS TO VISIBILITY.

KYZ001>023-026-027-061>063-070>075-310500-
WESTERN AND SOUTH CENTRAL KENTUCKY

CITY           SKY/WX    TMP DP  RH WIND       PRES   REMARKS
PADUCAH        CLEAR     78  73  84 N7        30.03R
HENDERSON      CLEAR     75  70  83 CALM      30.02S
OWENSBORO      CLEAR     79  75  87 CALM      30.04S
HOPKINSVILLE   CLEAR     79  73  83 N5        30.03R
BOWLING GREEN  CLEAR     78  73  84 CALM      30.03S
GLASGOW        CLEAR     73  73 100 CALM      30.04S
$$

KYZ024-025-028>034-038-045-046-053-310500-
NORTH CENTRAL KENTUCKY

CITY           SKY/WX    TMP DP  RH WIND       PRES   REMARKS
LOUISVILLE/SDF PTCLDY    82  68  62 N5        30.04S
LOUISVILLE/LOU CLEAR     81  68  64 N3        30.05S
FORT KNOX      CLEAR     75  71  88 N3        30.03F
$$

KYZ035>037-039>044-047>052-055>060-089>105-310500-
NORTHEAST KENTUCKY

CITY           SKY/WX    TMP DP  RH WIND       PRES   REMARKS
LEXINGTON      CLEAR     75  67  76 CALM      30.07F
COVINGTON      MOCLDY    76  67  73 CALM      30.08S
FRANKFORT      CLEAR     74  70  87 CALM      30.05F
$$

KYZ054-064>069-076>088-106>120-310500-
SOUTHEAST KENTUCKY

CITY           SKY/WX    TMP DP  RH WIND       PRES   REMARKS
JACKSON        CLEAR     73  70  90 CALM      30.09S
LONDON         CLEAR     73  68  84 CALM      30.08R
SOMERSET       CLEAR     72  72 100 CALM      30.08R
MIDDLESBORO    CLEAR     70  69  98 CALM      30.09S
MONTICELLO     CLEAR    N/A N/A N/A W10       30.08R
$$





USA.gov is the U.S. government's official web portal to all federal, state and local government web resources and services.